Temperature
18 18 18 18 18 18 18 18 18 19 19 19 19 19 19 19 19 19 19 18 18 18 18 19 18 19 19 19 19 19 19 19 19 18 18 18 18 18 18 18 18 18 18
18 18 18 18 18 18 18 18 18 18 19 19 19 19 19 19 18 18 18 18 18 18 18 18 18 18 18 18 19 19 18 18 18 18 18 18 18 18 18 18 18 18 18
18 18 18 18 18 18 18 18 18 18 18 18 18 18 18 18 18 18 18 18 18 18 18 18 18 18 18 18 18 18 18 18 18 18 18 18 18 18 18 18 18 18 18
18 18 18 18 18 18 18 18 18 18 18 18 18 18 18 18 18 18 18 18 18 18 18 18 18 18 18 18 18 18 18 18 18 18 18 18 18 18 18 18 18 18 18
18 18 18 18 18 18 18 18 18 18 18 18 18 18 18 18 18 18 17 17 17 17 17 17 17 18 18 18 18 18 18 18 18 18 18 18 18 18 18 18 18 18 18
18 18 18 18 18 18 18 18 18 18 18 18 18 17 17 17 17 17 17 17 17 17 17 17 17 17 17 17 18 18 18 18 18 18 18 18 18 18 18 18 18 18 18
18 18 18 18 18 18 18 18 18 18 18 17 17 17 17 17 17 17 17 17 17 17 17 17 17 17 17 17 17 17 17 17 18 17 17 18 18 18 18 18 18 18 18
18 18 18 18 18 18 18 18 18 17 17 17 17 17 17 17 16 17 16 16 17 17 17 17 17 17 17 17 17 17 17 17 17 17 17 17 18 17 18 18 18 18 18
19 18 18 18 18 18 18 17 17 17 17 17 17 17 16 16 16 16 16 16 16 16 16 16 16 16 17 17 17 17 17 17 17 17 17 17 17 17 17 18 18 18 18
18 18 18 18 18 18 17 17 17 17 17 17 16 16 16 16 16 16 16 16 16 16 16 16 16 16 16 17 17 17 17 17 17 17 17 17 17 17 17 18 18 18 18
18 18 18 18 18 18 17 17 17 17 17 17 16 16 16 16 16 16 16 16 16 16 16 16 16 16 16 16 16 16 17 17 17 17 17 17 17 17 17 17 18 18 18
19 18 18 18 18 18 18 17 17 17 17 17 16 16 16 16 16 16 16 16 15 15 16 16 16 16 16 16 16 16 16 17 17 17 17 17 17 17 17 17 18 18 18
19 19 18 18 18 18 18 17 17 17 17 17 16 16 16 16 16 16 16 15 15 15 15 16 16 16 16 16 16 16 16 16 16 16 17 17 17 17 17 17 17 18 18
19 19 19 18 18 18 18 17 17 17 17 17 16 16 16 16 16 16 15 15 15 15 15 15 15 16 16 16 16 16 16 16 16 16 16 16 16 17 17 17 17 17 17
19 19 19 18 18 18 18 17 17 17 17 17 16 16 16 16 16 16 15 15 15 15 15 15 15 16 16 16 16 16 16 16 16 16 16 16 16 16 17 17 17 17 17
19 19 19 18 18 18 18 18 17 17 17 17 16 16 16 16 16 15 15 15 15 15 15 15 15 15 15 15 15 16 16 16 16 16 16 16 16 16 16 17 17 17 17
19 19 19 19 18 18 18 18 17 17 17 16 16 16 16 16 15 15 15 15 15 15 15 15 15 15 15 15 15 15 15 15 16 16 16 16 16 16 16 16 17 17 17
20 19 19 19 18 18 18 18 17 17 17 16 16 16 16 15 15 15 15 15 15 15 15 15 15 15 15 15 15 15 15 15 15 16 16 16 16 16 16 16 16 17 17
20 19 19 19 18 18 18 17 17 17 17 16 16 16 16 15 15 15 15 15 15 15 15 15 15 15 15 15 15 15 15 15 15 15 16 16 16 16 16 16 16 16 16
20 20 19 19 18 18 18 17 17 17 17 16 16 16 16 15 15 15 15 15 15 15 15 15 15 15 15 15 15 15 15 15 15 15 15 16 16 16 16 16 16 16 16
20 20 19 19 19 18 18 18 17 17 16 16 16 16 16 15 15 15 15 15 15 15 14 14 14 14 15 15 15 15 15 15 15 15 15 15 16 16 16 16 16 16 16
20 20 19 19 19 18 18 18 17 17 16 16 16 16 15 15 15 15 15 15 14 14 14 14 14 14 14 14 14 15 15 15 15 15 15 15 15 15 15 15 16 16 16
20 20 19 19 19 18 18 18 17 17 17 16 16 16 15 15 15 15 15 14 14 14 14 14 14 14 14 14 14 14 14 14 15 15 15 15 15 15 15 15 16 16 16
20 20 19 19 19 18 18 18 17 17 17 16 16 16 15 15 15 15 15 14 14 14 14 14 14 14 14 14 14 14 14 14 14 14 15 15 15 15 15 15 15 15 16
20 20 19 19 19 18 18 18 17 17 17 16 16 16 16 15 15 15 15 14 14 14 14 14 14 14 14 14 14 14 14 14 14 14 14 15 15 15 15 15 15 15 15
20 19 19 19 19 18 18 18 17 17 17 17 16 16 16 15 15 15 15 15 14 14 14 14 14 14 14 14 14 14 14 14 14 14 14 14 14 15 15 15 15 15 15
Wind_Speed
3 6 12 12 12 12 12 12 12 12 12 12 12 12 12 11 11 11 10 9 9 8 8 8 7 7 7 6 6 6 6 5 5 5 4 4 4 4 4 4 4 3 3
7 9 13 13 12 12 12 12 12 13 12 12 12 12 11 11 10 9 9 8 8 7 7 6 6 6 6 5 5 5 5 5 4 4 4 3 3 3 3 4 4 3 3
10 10 13 13 13 13 13 12 12 12 12 11 11 11 10 10 9 8 8 7 6 6 6 5 5 4 4 4 4 4 4 5 5 5 4 2 1 2 3 3 4 3 3
11 11 12 14 13 13 13 13 12 12 11 11 10 10 9 8 8 8 7 6 6 5 5 5 4 4 4 3 3 3 3 4 5 5 4 2 0 3 4 4 3 3 3
11 12 14 15 14 14 13 12 12 11 11 10 9 9 8 7 7 7 6 6 5 5 4 4 4 3 3 3 3 3 4 5 5 5 4 3 0 3 4 3 3 3 3
10 12 14 15 14 13 13 12 11 11 10 9 8 8 7 7 7 6 6 5 5 4 4 3 3 3 3 3 3 3 4 5 4 4 4 2 1 3 4 3 3 3 4
10 11 14 15 14 13 12 11 10 10 9 8 7 6 6 5 5 5 4 4 3 3 3 3 3 3 3 4 4 4 4 5 3 3 2 2 1 3 3 4 4 3 3
11 10 13 14 14 13 12 11 9 9 8 7 6 4 4 3 3 3 2 2 2 2 2 2 3 4 5 5 5 6 5 5 3 3 3 2 3 3 3 4 4 3 2
10 9 9 11 12 12 11 10 9 7 6 5 4 3 2 1 1 0 1 1 1 1 2 3 4 5 6 6 7 7 7 6 3 3 3 2 3 3 3 4 4 3 2
9 8 7 8 9 9 9 9 8 6 5 4 2 1 1 1 2 3 3 3 3 3 4 4 6 7 7 7 8 8 8 6 2 2 3 3 3 4 4 4 3 2 2
8 7 6 6 7 8 8 8 7 5 4 2 1 1 1 2 3 4 4 4 4 5 5 6 7 8 7 7 7 7 7 3 2 2 3 4 3 4 4 4 3 2 1
9 8 7 7 6 7 6 6 4 3 2 1 1 1 2 2 3 2 3 3 4 5 6 7 8 7 6 5 5 5 3 2 1 2 3 3 3 4 4 4 3 2 1
9 8 8 7 6 6 4 4 3 2 1 1 1 0 1 3 3 3 3 4 5 5 5 7 7 5 4 3 3 3 2 0 1 2 3 3 3 4 4 3 3 2 2
8 8 8 7 6 5 4 3 3 2 1 0 1 1 3 2 3 3 2 3 3 3 4 4 3 4 4 3 2 1 1 1 1 1 3 3 3 3 3 3 3 2 2
8 7 8 8 7 5 4 2 3 2 2 2 3 4 4 3 2 2 2 3 3 4 3 3 3 3 3 3 3 2 1 1 0 1 2 3 3 3 3 3 3 2 2
8 8 7 8 7 6 4 3 2 3 3 3 4 4 5 4 2 2 3 3 4 4 4 3 3 3 2 2 3 3 2 1 1 0 1 2 3 3 3 3 3 2 2
9 9 9 8 7 7 5 4 3 3 4 3 3 5 6 5 4 3 3 3 3 5 4 4 4 3 3 3 3 3 2 1 1 1 0 1 2 3 4 3 3 3 2
9 8 8 9 7 6 5 4 3 4 4 3 4 5 5 6 5 4 3 2 3 5 4 3 3 3 4 3 3 3 3 2 2 1 0 0 1 2 3 3 4 3 3
10 9 8 8 7 6 6 4 4 4 3 3 4 4 4 5 5 4 2 2 4 3 3 3 3 2 2 3 3 2 3 3 2 2 1 1 1 1 2 2 3 3 3
9 9 9 8 7 7 5 4 3 3 2 2 3 3 4 5 5 4 2 3 4 3 4 3 3 3 2 2 3 3 4 3 3 2 1 1 1 1 0 2 2 2 2
8 8 8 8 6 5 4 3 3 2 1 1 1 3 4 4 5 4 3 3 3 3 3 3 2 4 3 3 3 4 4 4 4 3 2 2 2 2 1 1 2 1 1
8 8 8 8 6 5 4 3 2 2 1 1 1 2 2 3 3 3 3 2 2 3 4 4 3 2 3 3 2 2 3 5 4 4 3 2 2 2 1 0 1 2 2
8 8 8 8 7 5 5 4 4 4 3 3 2 1 1 1 2 2 2 2 2 2 2 2 2 2 2 3 2 3 2 1 3 4 3 3 3 2 2 1 0 2 3
8 7 8 8 7 5 6 5 5 3 2 2 1 1 1 1 1 1 2 2 2 1 1 2 1 1 1 2 2 1 1 3 1 2 4 4 3 2 2 2 1 0 2
7 7 7 7 6 5 5 6 6 4 2 1 0 0 1 1 1 0 1 2 1 1 1 2 2 2 1 1 0 1 1 1 1 2 2 4 4 3 2 2 1 0 1
5 6 6 7 5 5 5 5 6 5 4 2 1 1 1 1 2 2 0 0 0 1 1 1 1 2 1 1 0 1 1 1 1 1 1 1 2 3 3 2 1 1 1
Wind_Direction
136 142 130 122 115 110 108 107 105 103 100 98 96 94 91 86 84 83 82 81 82 81 80 78 77 75 72 69 66 60 55 52 51 48 44 50 61 73 78 80 82 73 82
142 138 128 122 116 111 108 106 105 103 100 96 94 92 89 86 83 80 78 77 76 77 77 75 77 73 68 63 58 53 44 36 30 26 27 33 57 82 88 87 85 81 89
132 131 126 121 117 113 110 108 105 102 99 95 92 89 86 83 81 78 76 74 71 71 71 70 70 66 62 54 43 37 29 19 13 12 20 24 69 107 106 100 90 81 84
132 129 126 123 120 117 114 110 106 103 100 97 93 89 86 81 78 75 71 67 65 65 62 62 59 51 46 40 24 12 6 1 2 8 22 3 276 126 120 111 95 83 88
129 128 128 125 123 120 116 112 109 105 102 99 96 91 86 81 76 72 67 64 62 60 59 57 51 35 25 19 8 357 350 352 3 6 8 359 129 142 130 121 107 93 105
130 132 133 129 126 123 119 116 112 108 105 102 99 95 89 83 78 72 68 64 61 56 51 47 35 19 4 344 333 330 337 340 354 358 1 355 201 166 138 134 127 111 116
135 137 138 135 132 129 125 121 117 113 109 107 104 99 93 86 80 74 70 62 54 44 32 24 8 351 332 318 311 312 318 331 341 340 345 337 228 179 148 136 135 125 123
141 142 143 143 140 136 133 129 126 122 119 117 114 110 103 94 82 75 75 62 37 17 3 351 338 329 320 312 303 301 306 313 320 328 316 295 228 190 159 143 136 133 135
142 143 145 148 146 143 142 140 139 137 136 134 126 121 123 139 163 187 240 259 286 300 311 316 313 312 312 306 300 297 299 304 302 286 294 284 233 196 166 150 145 139 140
145 149 151 154 153 151 154 153 153 154 157 163 161 151 210 275 266 269 269 266 270 285 296 303 304 305 305 305 301 295 296 305 295 286 283 267 237 201 174 157 159 150 152
149 156 159 161 166 167 169 171 168 166 171 181 203 253 287 312 306 283 276 267 276 291 303 306 306 304 305 310 309 304 303 296 262 274 270 259 237 199 175 161 160 173 190
162 167 169 167 170 176 178 166 170 176 188 194 231 295 329 327 314 312 301 291 301 313 318 317 318 317 311 315 320 329 319 279 248 266 256 245 220 188 178 169 173 190 218
167 165 169 171 166 166 162 155 160 160 174 248 277 307 43 39 29 29 14 348 346 344 339 333 341 341 328 321 321 329 335 162 220 262 248 227 203 188 187 190 192 199 210
156 162 169 165 156 158 149 151 157 151 147 96 46 99 91 71 48 40 27 4 360 352 345 344 343 338 333 333 342 346 7 128 196 253 245 221 210 207 207 208 201 206 210
157 161 158 151 151 148 138 151 139 141 136 106 74 76 89 82 60 43 22 21 12 11 3 351 356 356 351 354 5 35 20 33 89 218 241 227 223 228 230 228 213 215 219
161 157 150 146 149 141 142 138 134 133 120 88 70 74 83 87 75 50 25 13 6 11 13 5 9 13 2 7 12 17 12 15 38 360 280 269 250 250 248 231 214 209 210
158 150 144 145 141 135 133 134 122 119 109 92 76 76 79 76 71 63 41 13 0 10 13 15 15 21 18 14 5 359 4 7 11 351 320 280 269 265 252 239 212 199 186
152 147 146 143 134 127 125 120 111 109 106 102 88 78 72 71 74 71 50 10 4 19 19 19 17 17 14 9 350 343 356 356 354 339 336 330 281 276 262 243 216 194 179
154 145 139 135 133 129 123 114 104 98 97 100 91 81 72 68 70 73 52 12 22 30 21 18 30 26 12 357 342 356 355 354 345 354 359 16 16 312 262 238 213 187 174
150 142 140 137 137 129 113 97 80 71 64 72 84 87 81 71 66 63 47 24 31 37 22 18 19 20 15 353 11 13 352 349 358 8 349 7 12 10 309 207 195 206 183
144 143 146 143 146 130 115 112 106 104 91 60 74 95 92 81 72 66 48 31 30 38 21 15 24 22 10 12 36 8 354 357 8 10 1 9 18 23 76 161 170 187 200
157 156 153 151 150 145 146 142 142 138 140 119 45 58 76 83 72 69 62 41 30 32 23 22 38 28 3 23 69 55 7 353 352 1 2 14 9 17 25 48 193 192 195
154 162 161 161 156 152 140 112 87 66 49 34 24 359 345 62 72 69 65 62 39 50 25 9 40 61 14 355 54 112 103 312 323 336 350 0 1 7 346 341 155 190 189
164 162 155 154 152 148 136 133 133 134 148 209 221 257 307 23 67 80 75 71 57 47 25 351 53 85 85 8 350 24 152 169 133 335 337 343 351 357 341 337 321 160 173
158 155 156 151 154 150 142 146 140 142 168 188 117 46 347 337 328 358 75 76 59 30 9 7 19 47 92 114 17 349 30 55 107 139 315 332 345 334 328 316 307 140 173
143 141 146 147 155 152 145 148 150 154 154 142 137 184 309 325 323 315 41 74 31 13 2 3 15 40 56 96 113 127 139 141 205 152 203 293 319 315 324 319 312 272 216
Height
1519 1519 1520 1521 1521 1522 1522 1523 1523 1523 1524 1524 1525 1525 1525 1526 1526 1526 1526 1527 1527 1527 1527 1527 1527 1527 1527 1527 1527 1526 1526 1526 1526 1526 1526 1525 1525 1524 1524 1524 1523 1523 1523
1518 1520 1521 1521 1522 1522 1523 1523 1524 1524 1524 1524 1525 1525 1525 1525 1526 1526 1526 1526 1526 1527 1527 1527 1527 1527 1527 1527 1527 1526 1526 1526 1526 1526 1526 1525 1525 1525 1524 1524 1523 1523 1522
1519 1520 1522 1522 1523 1523 1523 1524 1524 1524 1524 1525 1525 1525 1525 1525 1525 1525 1526 1526 1526 1526 1526 1526 1526 1526 1526 1526 1526 1526 1526 1526 1526 1526 1526 1525 1525 1525 1524 1524 1523 1522 1522
1520 1521 1522 1523 1523 1524 1524 1525 1525 1525 1525 1525 1525 1525 1525 1525 1525 1525 1525 1525 1525 1525 1525 1525 1525 1525 1526 1526 1526 1526 1526 1526 1526 1526 1525 1525 1525 1524 1524 1523 1523 1522 1521
1521 1522 1523 1524 1524 1525 1525 1525 1525 1525 1525 1525 1525 1525 1525 1525 1525 1525 1525 1525 1525 1525 1525 1524 1525 1525 1525 1525 1525 1525 1526 1526 1526 1526 1525 1525 1525 1524 1524 1523 1522 1522 1521
1522 1523 1524 1525 1525 1526 1526 1526 1526 1526 1526 1526 1526 1526 1526 1525 1525 1525 1524 1524 1524 1524 1524 1524 1524 1524 1524 1524 1524 1525 1525 1525 1525 1525 1525 1525 1524 1524 1524 1523 1522 1522 1521
1523 1524 1525 1526 1526 1527 1527 1527 1527 1527 1527 1526 1526 1526 1526 1526 1525 1525 1524 1524 1524 1524 1523 1523 1523 1523 1523 1523 1524 1524 1524 1524 1525 1525 1525 1524 1524 1524 1524 1523 1522 1522 1521
1524 1525 1526 1527 1527 1528 1528 1528 1528 1528 1527 1527 1527 1527 1527 1526 1526 1525 1525 1524 1524 1523 1523 1523 1523 1523 1523 1523 1523 1523 1523 1523 1524 1524 1524 1524 1524 1524 1523 1523 1522 1522 1521
1525 1526 1527 1528 1528 1529 1529 1529 1529 1529 1528 1528 1528 1528 1527 1527 1526 1526 1525 1524 1524 1523 1523 1523 1522 1522 1522 1522 1522 1522 1522 1523 1523 1523 1523 1523 1523 1523 1523 1523 1522 1522 1521
1526 1527 1528 1529 1529 1530 1530 1530 1530 1530 1529 1529 1529 1529 1528 1527 1527 1526 1525 1524 1524 1523 1523 1522 1522 1522 1521 1521 1521 1521 1521 1522 1522 1522 1523 1523 1523 1523 1523 1523 1522 1522 1521
1527 1528 1529 1530 1530 1531 1531 1531 1531 1531 1530 1530 1530 1529 1528 1527 1527 1526 1525 1525 1524 1523 1523 1522 1522 1521 1521 1521 1521 1521 1521 1521 1521 1522 1522 1522 1522 1523 1522 1522 1522 1521 1521
1527 1528 1529 1530 1531 1531 1532 1532 1532 1532 1531 1531 1530 1529 1529 1528 1527 1526 1525 1525 1524 1523 1522 1522 1521 1521 1520 1520 1520 1520 1520 1520 1521 1521 1521 1521 1522 1522 1522 1522 1521 1521 1520
1527 1529 1530 1531 1531 1532 1532 1532 1532 1532 1532 1531 1530 1529 1529 1528 1527 1526 1525 1524 1524 1523 1522 1521 1521 1520 1520 1519 1519 1519 1519 1519 1520 1520 1520 1521 1521 1521 1521 1521 1521 1520 1520
1528 1529 1530 1531 1532 1532 1533 1533 1533 1533 1532 1531 1531 1530 1529 1528 1527 1526 1525 1524 1523 1522 1522 1521 1520 1520 1519 1519 1519 1518 1518 1518 1519 1519 1520 1520 1520 1520 1520 1520 1520 1520 1519
1528 1529 1530 1531 1532 1532 1533 1533 1533 1533 1532 1532 1531 1530 1529 1528 1527 1526 1525 1524 1523 1522 1521 1521 1520 1519 1519 1518 1518 1518 1518 1518 1518 1518 1519 1519 1519 1520 1520 1520 1520 1519 1519
1527 1529 1530 1531 1532 1532 1533 1533 1533 1533 1532 1532 1531 1530 1529 1528 1527 1525 1524 1523 1522 1522 1521 1520 1519 1519 1518 1518 1517 1517 1517 1517 1517 1518 1518 1518 1519 1519 1519 1519 1519 1519 1518
1527 1529 1530 1531 1532 1532 1533 1533 1533 1533 1532 1532 1531 1530 1529 1528 1526 1525 1524 1523 1522 1521 1520 1520 1519 1518 1518 1517 1517 1517 1516 1516 1517 1517 1517 1518 1518 1518 1518 1519 1519 1518 1518
1527 1529 1530 1531 1532 1532 1533 1533 1533 1533 1532 1532 1531 1530 1529 1528 1526 1525 1524 1523 1522 1521 1520 1519 1518 1518 1517 1516 1516 1516 1516 1516 1516 1516 1517 1517 1517 1517 1518 1518 1519 1518 1518
1527 1528 1530 1531 1532 1532 1533 1533 1533 1533 1532 1532 1531 1530 1529 1528 1527 1525 1524 1523 1522 1521 1519 1518 1518 1517 1517 1516 1516 1515 1515 1515 1515 1516 1516 1517 1517 1517 1517 1518 1518 1519 1519
1527 1528 1530 1531 1532 1532 1533 1533 1533 1533 1532 1532 1531 1530 1529 1528 1527 1526 1524 1523 1522 1521 1519 1518 1518 1517 1516 1516 1515 1515 1515 1515 1515 1516 1516 1516 1517 1517 1517 1518 1518 1519 1519
1527 1528 1530 1531 1531 1532 1532 1532 1532 1532 1532 1532 1531 1530 1530 1528 1527 1526 1525 1523 1522 1521 1520 1519 1518 1517 1516 1516 1516 1515 1515 1515 1516 1516 1516 1516 1516 1517 1517 1518 1518 1519 1519
1526 1528 1529 1530 1531 1531 1532 1532 1532 1532 1532 1532 1531 1530 1530 1529 1527 1526 1525 1524 1522 1521 1520 1519 1518 1517 1517 1517 1516 1516 1516 1517 1516 1516 1516 1516 1516 1517 1517 1517 1518 1519 1519
1525 1527 1528 1529 1530 1531 1531 1532 1532 1532 1532 1532 1531 1530 1530 1529 1528 1527 1525 1524 1523 1522 1520 1519 1518 1518 1517 1517 1517 1517 1517 1516 1516 1516 1516 1516 1516 1517 1517 1517 1518 1518 1519
1524 1526 1527 1528 1530 1530 1531 1531 1532 1532 1531 1531 1531 1530 1530 1529 1528 1527 1526 1525 1523 1522 1521 1520 1519 1518 1518 1517 1517 1517 1517 1517 1517 1517 1517 1516 1516 1516 1516 1517 1517 1518 1519
1523 1525 1527 1528 1529 1530 1530 1531 1531 1531 1531 1531 1531 1530 1530 1529 1528 1527 1526 1525 1523 1522 1521 1520 1519 1519 1518 1518 1517 1517 1517 1517 1517 1517 1516 1516 1516 1516 1516 1516 1517 1517 1518
1523 1524 1526 1527 1528 1529 1530 1530 1531 1531 1531 1531 1531 1530 1530 1529 1528 1527 1526 1525 1524 1523 1521 1520 1519 1519 1518 1517 1517 1517 1517 1517 1517 1517 1516 1516 1516 1516 1516 1516 1516 1517 1517